Regional Weather Roundup
Issued by NWS Burlington, VT

Home | Current Version | Previous Version | Graphics & Text | Print | Product List | Glossary On
Versions: 1 2 3 4 5 6 7 8 9 10 11 12 13 14 15 16 17 18 19 20 21 22 23 24 25 26 27 28 29 30 31 32 33 34 35 36 37 38 39 40 41 42 43 44 45 46 47 48 49 50
000
ASUS41 KBTV 220830
RWRBTV
VERMONT REGIONAL WEATHER ROUNDUP
NATIONAL WEATHER SERVICE BURLINGTON VT
300 AM EST MON DEC 22 2014

NOTE: "FAIR" INDICATES FEW OR NO CLOUDS BELOW 12,000 FEET WITH NO
SIGNIFICANT WEATHER AND/OR OBSTRUCTIONS TO VISIBILITY.

* THESE REPORTS ARE NOT UNDER NWS QUALITY CONTROL AND/OR DO NOT
  REPORT WEATHER SUCH AS PRECIPITATION AND FOG.

VTZ001>019-220900-
_____VERMONT_____


CITY           SKY/WX    TMP DP  RH WIND       PRES   REMARKS
BURLINGTON     CLOUDY    26  21  81 N3        30.37S
MONTPELIER     CLOUDY    22  20  92 CALM      30.37S
MORRISVILLE    CLOUDY    23  20  88 CALM      30.37S
ST. JOHNSBURY*   N/A     26  22  84 MISG      30.35S
LYNDONVILLE*   CLOUDY    24  20  87 CALM      30.34F
MIDDLEBURY*    CLOUDY    25  25 100 CALM      30.36F
RUTLAND*       CLOUDY    25  23  93 CALM      30.33F
SPRINGFIELD    CLOUDY    28  27  96 CALM      30.36S FOG
HIGHGATE*      CLOUDY    19  17  93 CALM      30.39F FOG
NEWPORT*       CLOUDY    19  17  92 CALM      30.36S FOG
BENNINGTON     CLOUDY    28  25  88 CALM      30.32F FOG
GALLUP MILLS*    N/A     23 N/A N/A MISG        N/A
UNION VILLAGE*   N/A     27 N/A N/A MISG        N/A
MT. MANSFIELD*   N/A     18 N/A N/A CALM        N/A

_____LAKE CHAMPLAIN_____


CITY           SKY/WX    TMP DP  RH WIND       PRES   REMARKS
BURTON ISLAND*   N/A     25  23  93 NW1         N/A
COLCHESTER RF*   N/A     28  28 100 NW8         N/A

$$

NYZ007-026>031-035-052-083-220900-
_____NORTHERN NEW YORK_____


CITY           SKY/WX    TMP DP  RH WIND       PRES   REMARKS
PLATTSBURGH    CLOUDY    23  20  88 CALM      30.38F FOG
SARANAC LAKE   MOSUNNY    5  32 100 CALM      30.27R
MASSENA        PTSUNNY   16  12  84 E6        30.40R
OGDENSBURG*    CLOUDY    19  18  93 NE5       30.36F FOG
POTSDAM*       CLOUDY    10   9  92 CALM      30.36F FOG
STARK FALLS*     N/A     18 N/A N/A SE9         N/A
WATERTOWN      PTSUNNY   20  15  81 NE5       30.33S HAZE
FT DRUM        SUNNY     19  18  93 SE8       30.31S
ALBANY         FLURRIES  29  23  78 NW5       30.36F
GLENS FALLS    CLOUDY    27  22  81 N3        30.36F

$$
NHZ002-005-011-220900-
_____NEW HAMPSHIRE_____


CITY           SKY/WX    TMP DP  RH WIND       PRES   REMARKS
LEBANON        CLOUDY    28  24  85 CALM      30.36S
KEENE          CLOUDY    30  30 100 CALM      30.35S
MT WASHINGTON  CLOUDY    14  -2  48 W28         N/A  WCI  -6
PLYMOUTH       CLOUDY    28  28 100 CALM      30.36S
WHITEFIELD     CLOUDY    26  23  88 CALM      30.34S

$$

_____REGIONAL QUEBEC LOCATIONS_____


CITY           SKY/WX    TMP DP  RH WIND       PRES   REMARKS
MONTREAL       CLOUDY    18  12  79 NE10      30.42S WCI   6
QUEBEC CITY    FLURRIES  16  12  86 N2        30.42
SHERBROOKE     CLOUDY    19  18  93 CALM      30.37S

_____REGIONAL ONTARIO LOCATIONS_____


CITY           SKY/WX    TMP DP  RH WIND       PRES   REMARKS
OTTAWA         CLOUDY    18  16  93 E3        30.38F FOG

______KEY______
VSB  - VISIBILITY IN MILES
WCI  - WIND CHILL INDEX
HX   - HEAT INDEX
$$
NNNN



USA.gov is the U.S. government's official web portal to all federal, state and local government web resources and services.